Showing default

CHINASAT 4A, 60606

Orbit data source: Space-Track

CHINASAT 4A, 60606 is a payload satellite owned by PLA SSF (CN) in GEO that was launched on Thu, 22 Aug 2024 UTC via a CHANG ZHENG 7A launch vehicle from the Wenchang Satellite Launch Center (WSC). Payload-class satellites include a variety of spacecraft equipped with specific instruments for various scientific and technological missions. These include communications satellites like Starlink; space stations such as the ISS; scientific satellites like the Hubble; Earth observation satellites from companies like Planet Labs, Umbra, and HawkEye 360; GPS; miniature CubeSats for education and research; and military/defense satellites.

Not visible in the next 10 days
Identifier
60606, 2024-151A
Orbit
GEO
Country
Flag of CNCN / PRC
Related business
Manufacturer
SISE
Mission
Operational Defense Communications
Bus & Motor
FY-4?, LAE
Mass
~5,000 kg wet, ~2,500 kg dry
Launch date (UTC)
2024-08-22 (2 years ago)
Launch vehicle
CHANG ZHENG 7A
Launch site
Wenchang Satellite Launch Center (WSC)
Object type
Payload
Rocket body
Debris
Shape & HBR
Box + 2 Pan, 15.0 m
Radar Cross Section
34.063 m², Large (>1 m²)

Expand to show TLE details & history
Last TLE update: 6 hours ago

TLE from 6 hours ago
0 CHINASAT 4A
1 60606U 24151A   26249.62469426 -.00000380  00000-0  00000-0 0  9995
2 60606   1.1106 270.0793 0001118   7.4935  51.2676  1.00270756  7570
Epoch: 2026-09-06T14:59Z
TLE epoch observation values (Epoch: 2026-09-06T14:59:33.584Z)
Latitude
0.94474°
Longitude
118.2433°
Altitude
35,783.3 km
Speed
3.075 km/s
True Right ascension
21h 55m 24s
True Declination
0° 56' 38"
Sunlit
Object was in daylight at epoch
Visualization orbit readout
Latitude
Unknown
Longitude
Unknown
Altitude
Unknown
Speed
Unknown
Apparent Right ascension
Unknown
Apparent Declination
Unknown
Sunlit
N/A
Visualization observer readout
Local Sidereal Time
13:23:20
Azimuth
Unknown
Elevation
Unknown
Doppler factor
Unknown
Orbital elements
Apogee altitude
35,792.667 km
Perigee altitude
35,783.239 km
Semi-major axis
42,166.09 km
Eccentricity
0.00011
Inclination
1.1106°
RAAN
270.0793°
Arg. of periapsis
7.4935°
True anomaly
51.27759°
Mean anomaly
51.2676°
Eccentric anomaly
51.2726°
Mean motion
0.25067 °/min
Orbital period
1,436.16 mins
BSTAR
0
Loading maneuver chart data...
Computing Atmospheric mass density...
Loading historical data...
Loading historical data...
Loading historical data...
Loading historical data...
Loading historical data...
Loading historical data...
Loading historical data...
Other satellites on launch #151 in the year 2024 (2024-08-22 UTC)

Documentation

Showing up to 5 results
|